RH
10 11 12 12 13 13 12 12 11 10 10 10 10 10 9 8 8 15 28 70 94 92 20 47 57 87 84 90 100 90 90 81 54 57 99 98 94 91 85 72 67 48 47 53 88 78 73 25 41 43 35 37 37 33
10 11 12 13 13 14 14 13 13 12 12 13 12 11 10 9 25 88 84 54 71 94 56 73 90 100 85 86 100 98 92 98 92 80 83 94 95 96 76 98 77 66 58 52 51 41 30 29 27 33 38 40 39 35
12 13 13 14 15 15 15 15 14 14 15 15 14 12 9 21 55 69 90 82 61 76 78 71 51 53 59 73 87 99 81 70 86 72 66 92 100 95 94 96 96 72 68 58 51 42 43 39 34 34 33 44 44 41
15 16 16 16 17 17 18 18 18 19 19 17 14 15 68 99 95 95 88 77 78 92 100 62 49 33 53 75 60 64 72 85 95 96 98 99 100 98 86 86 90 95 95 93 85 54 44 44 43 42 45 45 46 48
18 19 18 19 20 20 21 20 22 23 20 14 17 84 89 86 82 85 74 60 66 89 84 71 46 39 67 70 68 74 69 79 94 92 90 66 52 100 92 98 46 36 67 94 90 79 69 48 38 36 40 43 52 53
22 22 22 22 23 26 26 27 27 21 20 64 76 68 70 68 66 69 71 49 49 68 99 97 72 72 53 45 42 43 85 79 88 75 96 98 85 80 100 100 37 36 39 46 69 98 97 80 51 44 50 52 57 57
25 26 26 28 31 32 34 31 21 14 11 11 14 25 30 37 53 61 68 49 68 89 100 97 77 52 41 28 27 30 43 78 60 57 59 45 77 93 87 88 44 47 38 40 46 93 91 77 74 60 54 54 56 62
30 30 32 37 39 38 30 19 13 13 15 33 50 55 58 61 56 37 34 49 50 79 97 99 96 72 52 58 60 53 66 79 72 66 68 65 65 99 100 66 19 18 22 38 56 82 91 95 86 91 56 51 58 65
36 39 45 47 44 32 20 16 16 20 21 54 59 66 60 41 29 42 48 44 63 92 100 98 98 90 92 87 89 95 99 98 92 89 61 97 96 94 53 30 23 19 16 14 17 48 92 98 88 89 84 67 67 74
49 56 82 68 34 22 19 18 23 23 51 55 72 70 44 50 64 52 37 35 47 60 96 53 72 71 90 99 96 98 96 97 97 96 99 100 79 44 46 52 49 45 52 47 37 21 54 57 94 97 84 73 71 97
63 82 100 40 24 21 20 22 29 45 56 75 74 58 47 42 31 35 75 100 97 98 97 93 97 97 98 97 93 97 94 95 96 91 98 94 71 40 41 42 41 44 52 53 56 29 23 36 40 71 78 93 97 97
80 86 40 25 24 26 32 41 38 60 83 88 93 82 57 32 69 100 96 97 97 96 95 95 92 96 90 91 98 97 97 92 88 84 98 96 50 51 61 52 48 61 72 63 58 49 74 38 62 96 98 97 97 96
64 31 34 46 60 62 58 42 59 86 86 83 80 62 46 48 75 97 97 95 96 95 88 81 79 86 79 94 98 95 96 96 94 89 87 56 54 68 68 70 77 79 88 76 76 47 95 93 88 97 99 97 97 98
68 58 33 30 38 52 46 58 81 92 96 82 59 50 44 44 71 92 97 98 94 90 79 83 86 96 86 92 96 97 96 93 91 89 78 64 66 64 73 77 83 94 78 98 95 51 82 89 90 99 98 98 98 97
27 23 20 28 48 62 78 85 94 90 72 56 60 50 40 43 55 79 96 97 93 86 94 89 82 84 91 96 96 96 95 89 86 78 65 68 85 84 87 94 85 89 98 43 38 59 73 49 93 98 98 97 96 95
26 19 24 48 57 85 98 80 54 44 48 52 53 41 44 69 87 96 95 92 95 96 95 97 98 97 97 97 98 98 98 98 98 96 95 95 95 95 94 94 95 96 97 95 92 90 91 97 97 96 95 96 93 95
37 31 37 55 83 92 55 46 38 39 55 54 55 85 99 98 99 94 92 96 97 97 97 98 98 97 96 96 96 96 97 96 96 95 96 95 96 96 97 96 97 97 97 97 97 96 96 96 96 96 96 95 93 82
55 54 63 90 85 47 37 33 40 64 76 92 100 98 98 98 94 86 92 98 97 98 98 98 98 96 96 96 96 98 96 97 96 96 95 95 96 97 98 98 98 97 97 97 97 97 96 96 96 95 94 82 58 39
75 62 70 73 47 45 40 43 79 99 98 99 98 98 99 98 89 93 96 98 98 98 99 97 97 97 98 97 96 99 97 97 98 97 97 98 98 98 97 97 97 97 96 96 96 95 95 91 85 69 52 31 16 12
72 71 79 50 40 38 42 54 89 100 98 99 98 100 100 100 100 98 98 98 99 98 96 96 98 99 99 96 98 99 98 99 99 97 98 97 98 97 96 96 94 95 95 96 95 87 75 58 35 20 15 14 14 14
72 84 62 40 32 43 50 54 73 98 98 98 98 96 100 100 100 100 100 99 97 91 95 98 99 99 100 100 99 99 99 98 97 95 96 95 95 93 95 94 87 72 52 39 30 23 20 19 18 18 18 18 18 19
82 63 45 37 40 49 54 60 61 88 98 98 98 97 97 98 99 97 93 83 94 99 98 98 100 99 99 98 98 97 97 98 96 95 95 96 95 93 77 48 34 30 29 28 29 29 27 26 24 25 26 28 29 29
66 55 42 42 44 51 52 56 49 58 94 98 98 96 98 97 98 82 84 98 98 98 98 96 97 98 91 94 98 95 95 97 96 94 93 84 68 52 41 39 38 38 36 34 32 33 35 36 35 33 30 28 28 32
57 55 42 42 44 49 54 53 52 47 57 96 98 97 97 97 97 96 97 95 97 98 99 98 98 98 98 97 95 95 88 73 64 56 51 51 51 48 46 42 42 45 46 45 42 36 31 28 29 33 36 38 42 47
63 45 45 51 48 54 54 41 46 58 53 74 97 98 97 98 95 96 97 100 100 100 99 99 99 99 98 96 97 95 93 94 77 64 52 49 56 64 63 59 51 42 36 34 32 33 38 42 40 30 30 35 45 52
50 49 54 52 54 63 74 59 45 52 72 74 95 98 98 98 97 97 97 98 98 98 98 98 98 98 97 98 97 96 96 95 92 84 78 68 54 46 42 39 36 35 37 41 45 48 49 39 31 35 40 43 48 59
48 52 54 63 68 82 90 87 77 78 84 69 87 98 98 97 97 97 98 99 99 99 99 98 98 98 95 84 70 60 55 51 50 47 43 41 41 41 42 43 45 47 51 52 56 60 62 54 51 58 69 76 77 78
55 60 67 75 88 96 98 97 96 94 85 72 68 58 65 88 92 97 98 99 99 100 100 100 98 87 73 65 58 50 44 40 38 37 36 36 36 42 48 52 53 55 60 66 69 72 74 77 77 77 77 76 79 80
70 72 78 85 94 98 98 99 100 88 76 66 59 46 46 73 96 97 98 98 99 99 99 98 92 76 70 68 62 55 51 50 49 46 42 39 39 48 56 61 64 71 77 81 84 83 85 86 85 84 84 85 86 86
81 84 86 89 94 96 97 97 89 76 69 60 50 63 84 91 95 97 98 98 98 98 98 98 95 84 77 76 77 74 68 64 62 59 52 48 54 62 66 68 78 86 87 87 87 90 93 92 90 87 88 87 87 77
92 90 86 89 90 95 98 98 97 89 84 84 91 98 95 94 98 100 100 100 100 100 98 97 96 95 94 91 88 86 83 79 74 67 57 54 59 66 66 72 85 88 90 90 92 94 93 91 91 92 92 86 62 63
93 90 87 83 73 95 96 99 99 98 98 98 97 96 98 97 98 98 98 96 96 97 96 95 94 92 91 89 87 84 83 82 80 73 64 57 61 68 69 82 90 92 92 93 96 95 94 95 96 95 81 59 74 75
81 80 62 55 82 98 96 94 100 100 99 98 97 97 98 98 99 96 97 94 92 92 94 93 89 88 88 88 86 84 83 80 79 76 69 61 65 72 80 92 94 95 97 98 98 97 98 98 95 74 64 77 76 77
Wind_Speed
29 29 29 29 28 28 28 29 29 29 29 30 31 31 31 31 29 30 29 22 25 36 45 41 40 49 50 50 48 46 45 40 27 30 29 36 32 32 35 45 41 39 34 34 29 16 18 34 25 30 31 21 16 11
31 31 32 31 31 30 30 30 31 31 32 33 33 33 33 32 31 25 32 26 27 35 47 46 47 44 46 48 42 38 39 41 35 23 25 23 33 37 23 32 36 45 47 36 33 35 34 23 23 23 28 27 19 17
33 33 33 32 32 32 32 32 32 33 33 34 35 36 36 33 29 30 34 33 35 42 49 47 47 41 40 41 29 39 46 42 42 40 44 44 31 30 35 15 24 22 24 40 42 48 41 36 33 29 26 27 27 19
34 34 33 33 33 33 32 33 33 34 36 37 37 37 33 32 32 33 38 36 38 45 52 57 39 37 31 28 31 38 45 41 39 34 39 46 49 38 44 41 39 33 25 23 32 44 44 34 24 31 27 27 30 23
34 34 34 33 33 33 34 34 35 36 37 37 36 33 34 35 37 38 41 42 43 41 51 56 52 48 47 44 43 46 49 41 38 44 47 47 50 41 50 46 61 59 53 39 27 16 28 38 35 33 35 34 33 24
34 33 33 33 33 33 34 34 35 37 37 35 35 36 36 38 37 40 46 40 37 43 43 51 58 54 48 48 46 40 37 42 46 42 49 45 47 42 42 46 55 44 42 44 40 31 33 21 28 28 30 31 33 28
33 33 33 32 33 33 33 34 34 35 35 36 37 37 37 38 38 40 46 40 38 41 47 57 61 46 42 41 40 39 31 36 44 49 53 54 54 42 49 52 53 46 44 46 47 33 32 23 18 17 18 25 35 28
32 32 31 32 32 31 32 32 33 35 36 36 38 39 39 39 37 42 38 28 30 31 37 50 51 58 49 49 49 45 43 39 43 47 50 55 57 55 50 64 58 52 47 49 47 46 41 28 24 28 25 22 28 31
31 31 31 31 31 31 31 33 35 35 36 38 40 41 41 37 39 37 40 42 42 36 40 39 46 50 24 23 27 28 33 41 45 48 51 47 48 43 62 59 58 52 51 46 50 40 40 30 25 25 30 24 26 30
29 29 30 29 29 30 32 34 34 35 37 39 39 40 41 36 41 46 50 56 44 37 49 55 51 60 51 49 36 27 24 28 33 40 40 46 57 58 55 52 47 42 43 41 42 43 46 37 29 29 30 30 35 34
28 28 27 29 29 30 33 33 34 35 37 36 39 39 37 39 43 43 20 11 8 6 11 18 14 29 23 30 30 28 28 21 25 25 30 35 54 50 42 41 37 33 39 41 39 39 40 33 35 30 32 36 32 22
27 28 28 28 29 30 31 32 32 31 32 35 37 39 42 32 19 7 9 8 7 6 27 36 36 36 32 28 15 11 20 14 13 17 19 34 46 41 38 35 33 33 34 32 35 35 32 32 38 36 43 34 29 30
27 27 27 27 28 30 30 29 28 29 32 33 34 33 17 17 12 10 7 10 19 34 43 46 43 40 30 15 12 8 7 9 12 14 30 47 42 35 33 32 36 40 40 35 36 39 38 32 32 39 40 38 34 29
25 26 27 27 27 27 28 26 26 28 30 31 25 14 13 12 17 18 19 25 34 40 45 44 40 31 30 21 14 7 8 10 9 11 19 24 26 36 28 33 32 28 25 28 34 45 45 39 38 37 34 32 35 38
26 27 26 26 25 26 26 24 25 26 29 30 18 16 22 28 31 33 37 38 42 43 42 38 30 23 15 11 7 7 4 7 8 15 22 23 26 38 41 35 23 16 18 25 37 46 43 39 41 37 36 39 34 26
27 27 24 24 24 24 23 23 24 27 30 28 25 29 32 35 37 39 42 43 41 40 29 20 13 7 8 6 6 6 5 5 11 20 25 33 33 31 32 27 23 19 29 24 27 32 37 41 43 46 41 30 27 21
25 24 23 24 22 21 22 25 28 28 28 20 27 26 23 31 37 40 39 38 29 19 17 7 5 3 8 5 5 8 11 18 23 23 26 27 25 25 19 13 15 26 33 34 35 38 45 45 41 37 32 26 21 17
23 22 22 20 19 21 24 25 26 25 18 20 21 21 25 30 34 36 33 17 10 5 4 8 6 4 5 8 13 14 20 20 20 19 15 13 10 5 6 15 26 35 44 46 44 40 36 33 31 28 24 21 16 12
21 21 18 16 17 20 22 24 20 10 14 16 15 16 19 23 27 25 19 7 4 4 5 1 6 11 11 6 6 10 14 10 10 10 19 28 34 36 38 38 38 38 37 37 36 36 33 28 24 21 17 14 11 8
19 18 14 14 16 17 19 14 20 12 10 8 8 14 11 13 15 16 10 4 6 7 14 15 16 13 9 8 5 4 3 19 29 32 34 33 32 33 35 35 36 36 34 31 29 26 23 20 17 14 11 7 5 3
13 12 12 15 14 14 13 11 18 13 9 3 8 9 19 23 26 26 28 28 28 31 25 21 14 9 10 9 14 24 27 27 30 30 32 33 34 34 32 30 27 25 22 22 20 19 16 12 10 7 4 0 3 6
8 8 10 9 12 11 8 11 14 17 3 3 6 10 18 27 33 36 35 42 40 33 32 33 30 29 29 30 29 28 28 28 30 31 31 29 27 26 24 23 19 17 16 15 13 10 8 6 4 3 5 7 10 14
7 7 7 7 5 6 7 13 10 11 9 2 6 11 13 19 27 26 31 30 28 26 25 24 24 24 25 25 24 26 27 26 25 24 23 20 18 17 15 13 12 10 9 8 7 6 6 7 9 11 13 16 18 19
7 9 7 4 4 6 11 11 10 9 6 8 8 8 11 14 18 23 23 21 19 16 16 16 16 17 19 18 19 20 18 16 15 13 13 13 10 9 9 8 7 7 6 7 9 10 12 14 16 17 18 18 18 17
6 5 4 5 4 6 7 8 10 9 5 4 3 3 4 8 16 17 16 15 13 12 11 10 10 11 12 12 13 13 14 12 10 9 8 8 7 6 6 7 7 9 10 12 13 14 15 16 16 16 15 14 12 11
4 4 4 4 6 5 6 6 6 10 7 4 2 3 6 5 3 6 11 11 10 10 10 10 10 9 9 8 8 7 7 6 5 5 4 5 6 7 9 10 11 12 12 13 13 13 14 13 12 11 9 9 9 9
5 5 5 6 6 6 6 6 6 7 6 3 4 4 3 2 3 9 11 11 10 10 10 11 12 11 11 10 9 8 7 8 8 7 8 9 9 10 10 11 11 11 12 12 12 11 10 10 9 9 7 7 8 9
6 5 4 5 5 4 4 5 6 5 4 4 5 4 3 3 7 13 12 11 10 9 8 9 8 7 7 7 7 8 9 9 9 9 10 10 10 11 11 11 12 12 11 10 9 8 8 7 7 6 7 9 11 11
5 3 2 4 3 3 4 5 4 5 5 5 5 3 3 7 14 13 11 9 8 6 4 4 3 2 2 3 4 5 7 8 10 11 12 13 12 11 11 11 12 11 10 9 9 8 7 6 6 8 10 11 12 11
5 2 2 4 2 1 3 5 6 3 4 4 4 7 12 13 12 10 8 6 3 1 1 1 1 1 2 3 4 5 7 8 9 11 14 15 13 12 11 11 10 9 9 8 7 6 6 6 7 9 10 10 10 10
5 3 1 3 2 1 1 4 7 9 10 10 11 9 8 8 8 6 4 2 1 1 0 2 3 4 5 6 8 9 10 10 11 12 15 17 15 13 11 10 9 7 6 6 5 5 6 8 9 9 8 8 8 8
5 3 3 4 2 1 1 2 1 2 3 5 5 6 5 4 3 3 2 3 4 5 5 6 7 8 9 9 11 12 12 11 12 13 15 18 16 12 9 8 7 5 5 5 5 7 7 7 7 6 6 6 6 7
4 4 4 2 2 3 2 2 3 5 5 6 6 7 8 7 7 7 8 9 10 10 9 10 11 11 11 12 13 13 12 12 12 13 15 17 15 11 7 6 5 4 4 5 6 6 6 5 4 4 4 5 6 6
Wind_Direction
301 302 303 304 306 308 309 309 309 309 309 309 309 311 313 314 315 309 307 302 282 278 291 278 275 272 278 278 276 278 287 292 290 270 268 250 242 247 248 248 243 243 241 238 223 233 249 254 240 228 255 264 243 205
298 297 298 299 300 302 303 305 307 308 307 308 308 309 309 307 306 300 299 301 289 275 281 280 276 271 273 275 278 272 273 283 264 266 258 303 299 297 282 270 245 238 237 242 241 248 263 265 283 271 262 261 247 226
293 293 293 295 296 299 301 303 304 304 304 305 305 305 306 308 302 299 299 300 295 287 286 281 281 288 279 274 277 278 275 268 268 268 274 280 277 279 283 293 250 235 248 247 248 252 261 267 267 272 266 253 248 237
292 292 292 294 295 296 298 300 302 304 304 303 304 305 305 304 306 302 297 295 290 290 287 289 292 286 297 285 280 269 270 270 270 267 263 267 268 266 271 273 277 261 278 287 258 257 259 257 261 255 248 245 242 238
293 292 292 292 294 297 300 301 301 300 301 304 308 304 303 301 301 298 294 293 292 288 287 292 290 288 290 284 280 277 270 268 264 259 260 260 266 265 271 277 274 268 272 270 277 257 291 274 271 269 268 256 239 240
290 290 292 294 296 297 298 299 301 303 306 308 306 305 303 300 298 297 295 298 303 304 291 287 293 292 287 285 282 277 276 260 253 257 255 260 265 262 267 273 278 282 281 268 274 259 268 281 261 266 253 247 233 241
292 291 292 293 294 296 299 300 302 307 308 308 307 306 302 298 294 292 290 306 304 298 286 284 289 291 291 288 283 281 272 258 252 254 256 259 259 254 261 261 270 271 270 262 257 264 246 233 261 264 255 245 238 237
289 290 292 293 296 297 299 300 304 306 308 308 307 304 301 300 303 298 303 292 294 286 278 267 272 281 284 283 281 281 272 261 254 257 260 257 263 258 254 265 264 265 263 258 257 256 257 249 245 266 265 258 244 240
290 292 293 295 296 298 300 301 305 305 309 309 306 306 304 309 307 305 303 302 296 281 271 268 272 283 298 294 292 269 257 253 256 256 260 254 250 243 257 261 259 258 259 257 257 259 256 240 235 246 257 252 250 244
292 294 296 296 297 299 299 302 304 308 309 305 308 309 311 319 309 302 296 293 285 276 260 265 266 269 270 273 266 275 271 245 243 250 253 243 249 263 264 268 273 271 270 268 261 247 250 258 268 254 258 263 250 233
294 297 296 296 299 298 300 302 306 307 305 309 310 308 312 316 311 302 289 257 259 256 278 307 346 332 313 283 294 265 252 250 243 247 237 246 258 271 275 283 281 280 274 265 258 254 247 245 262 244 250 243 231 237
297 294 296 298 299 300 302 304 307 307 305 306 305 310 313 323 308 271 264 275 244 215 335 328 322 325 318 320 287 250 232 230 240 247 239 251 273 285 286 288 289 302 279 261 254 240 222 225 240 236 244 232 238 247
293 295 298 299 301 303 302 305 307 304 303 305 308 310 306 311 263 278 270 274 309 318 320 322 323 323 316 316 244 238 249 239 240 242 252 265 285 285 296 291 282 283 279 239 235 214 215 222 235 235 232 241 242 251
296 298 300 302 304 302 301 306 305 304 306 307 308 289 284 269 268 276 279 288 300 310 312 314 313 306 300 288 243 239 235 247 250 251 270 293 293 295 294 300 288 296 246 242 206 203 212 219 222 224 224 235 234 205
297 298 300 305 301 298 304 301 302 300 299 299 289 278 274 281 277 276 275 284 295 301 305 307 303 300 287 246 244 231 249 244 250 272 288 289 288 292 305 315 291 294 231 202 195 202 210 220 225 218 208 190 181 178
300 299 303 301 296 303 302 302 300 298 298 293 278 282 286 282 281 282 286 290 295 300 300 300 281 262 247 240 222 221 248 268 295 297 298 299 305 314 318 319 303 275 232 199 201 210 218 212 189 181 171 155 154 166
303 306 303 301 306 303 304 304 303 302 298 281 282 285 275 286 296 298 301 302 305 297 295 286 260 273 306 307 359 14 336 309 316 323 328 337 337 325 314 287 238 196 185 182 171 159 155 155 154 149 148 143 133 136
302 302 301 308 304 307 306 311 312 303 281 281 276 296 295 299 302 307 307 317 301 293 289 255 278 310 11 17 360 343 337 336 338 339 349 348 337 4 91 123 132 138 137 136 135 132 129 131 128 121 118 125 137 148
301 301 307 301 305 309 317 322 325 293 286 288 309 314 314 316 317 318 324 338 265 228 215 160 68 66 61 27 20 333 343 339 0 71 98 104 104 104 104 106 107 110 113 113 112 107 105 109 114 120 128 139 152 165
302 304 298 302 310 309 310 315 333 305 298 323 16 354 358 3 355 348 347 164 159 131 98 89 76 79 69 41 35 340 74 115 114 110 103 102 102 105 104 102 98 93 94 99 102 104 108 115 123 130 138 145 163 204
298 290 296 303 299 307 307 308 340 333 323 334 342 88 76 76 80 87 96 104 110 89 87 90 84 64 53 67 101 115 116 117 111 108 102 97 91 85 83 85 88 93 99 103 105 109 112 114 114 114 114 120 285 288
288 285 302 294 302 314 304 306 326 338 355 95 99 105 90 85 82 81 85 83 79 81 86 88 89 92 98 98 98 99 97 97 96 91 87 86 88 89 92 94 96 96 95 95 94 92 89 80 58 8 328 313 306 303
273 288 293 302 303 310 306 320 317 333 354 48 135 113 93 88 87 92 79 83 88 90 92 94 95 94 92 91 91 88 85 81 82 84 89 92 93 96 94 91 88 81 74 66 56 37 10 348 334 322 314 310 308 306
264 291 274 269 284 290 308 314 315 317 325 352 161 127 101 97 100 90 86 89 90 96 101 99 95 91 92 93 91 92 94 93 93 95 97 94 87 83 78 69 58 43 21 4 351 340 333 327 322 318 316 313 310 310
279 265 247 254 270 295 303 303 307 312 316 324 229 191 143 126 104 94 92 95 103 106 106 109 110 109 103 97 93 91 90 88 92 88 82 79 65 44 24 7 357 348 341 336 332 331 330 328 327 326 326 328 328 330
256 247 238 259 293 292 302 295 297 291 290 286 249 190 166 165 113 121 115 110 110 114 119 122 115 107 105 96 89 91 95 89 71 50 19 7 3 357 349 341 336 332 329 330 332 332 333 333 336 344 353 353 343 335
248 255 268 296 303 299 293 286 298 287 267 233 209 183 156 151 135 155 140 129 127 126 120 110 102 96 88 81 74 64 52 42 29 10 360 352 345 338 333 330 330 329 330 332 331 331 333 336 338 341 351 357 348 342
245 249 282 312 301 321 320 305 277 262 247 209 187 194 197 210 168 158 147 140 136 126 119 109 97 86 74 62 55 49 39 29 20 9 359 348 339 333 332 332 331 329 327 324 325 330 335 337 342 352 354 351 345 341
221 235 316 332 322 331 332 342 320 232 223 206 211 236 241 170 158 152 148 144 138 135 126 104 84 68 53 37 24 18 10 9 6 2 353 346 339 330 325 327 328 330 333 336 334 333 338 345 349 347 345 343 343 346
216 237 335 357 346 11 45 39 46 89 170 173 154 137 139 146 148 147 146 140 134 147 227 272 271 312 332 334 331 326 325 331 338 345 350 348 342 333 330 329 328 328 330 334 335 335 338 341 341 341 343 347 353 357
220 219 282 347 354 18 46 72 84 100 108 112 120 127 137 143 150 156 161 160 140 99 179 252 266 285 300 309 315 317 318 323 326 334 344 347 342 335 331 327 324 325 325 323 321 324 330 337 341 348 356 359 3 3
206 218 269 306 286 224 247 219 162 133 127 125 137 147 162 175 187 201 247 297 303 300 303 310 316 309 303 305 313 315 313 317 322 325 332 338 336 328 320 312 311 308 302 306 318 329 336 343 352 0 5 9 10 15
217 233 262 259 213 202 224 247 237 232 229 223 223 228 236 241 243 253 265 278 288 280 274 280 293 299 298 300 305 308 306 306 307 313 319 327 328 323 315 310 303 292 297 319 336 341 346 355 5 15 18 22 28 30